Lid_Strength_Index
3 3 3 3 3 4 9 14 20 11 12 19 29 25 21 12 13 10 10 10 11 13 14 19 18 15 12 9 8 12 10 12 16 14 11 10 11 13 13 18 19 17 18 18
3 3 3 3 3 5 12 17 18 12 12 24 26 24 15 13 13 12 11 12 11 10 14 15 18 14 9 9 9 11 10 13 17 16 13 11 13 12 12 13 14 18 19 18
3 3 3 3 3 6 12 16 20 18 17 20 21 25 20 16 11 11 11 12 11 13 14 12 16 13 10 9 9 8 8 12 15 18 16 13 15 13 12 14 17 17 17 15
3 3 3 3 4 5 12 17 22 21 23 19 19 17 16 15 17 12 11 12 13 15 16 17 16 14 12 11 9 11 10 14 13 13 13 12 13 14 13 15 14 17 15 15
3 3 3 3 4 6 14 17 19 17 18 17 17 17 18 15 16 13 13 14 13 13 14 14 15 14 14 14 12 13 11 14 13 16 12 13 14 13 13 13 13 13 13 14
3 3 3 3 4 7 14 17 16 17 15 17 18 18 17 14 12 12 12 13 14 14 13 12 12 12 11 11 12 14 13 15 16 18 14 15 18 15 13 13 13 13 15 13
3 3 3 3 4 7 13 15 15 18 23 17 17 15 14 13 12 13 12 12 14 12 10 10 11 11 12 11 11 11 14 16 15 18 17 21 14 14 14 14 14 13 13 13
3 3 4 3 4 7 13 14 15 18 24 18 16 15 14 14 13 13 12 12 12 11 12 16 23 20 20 18 12 11 12 14 16 20 20 16 15 14 14 14 16 15 14 12
3 4 4 4 4 7 12 13 13 15 19 20 14 16 14 17 19 18 14 12 12 12 14 24 27 25 23 23 19 12 11 12 15 20 20 21 15 13 13 12 17 15 15 14
3 4 4 3 4 6 11 13 14 14 19 18 16 18 16 14 16 19 17 15 14 13 21 30 26 25 22 23 20 18 15 16 20 19 19 17 14 13 13 18 16 14 14 14
4 4 4 4 4 5 10 14 14 13 18 17 15 14 16 16 16 20 19 17 19 22 25 26 24 25 22 20 20 16 19 20 22 20 20 21 13 12 14 13 13 14 14 14
4 4 3 4 4 5 9 14 13 13 17 17 14 14 13 12 14 16 16 17 20 16 22 24 24 24 24 25 25 17 18 15 17 16 17 13 13 13 12 12 13 14 14 14
4 4 3 4 4 5 9 14 14 15 19 18 18 17 14 11 12 12 18 16 13 14 16 20 22 24 18 24 23 21 18 15 15 14 14 13 12 12 12 12 13 13 14 14
4 4 4 4 5 6 9 13 14 14 18 21 20 13 15 11 10 10 11 12 12 14 16 19 26 25 16 18 18 19 19 17 19 17 13 13 14 15 14 14 13 14 14 14
4 4 4 4 5 7 11 13 14 14 15 21 21 16 14 11 11 11 11 12 12 13 16 18 23 19 17 18 19 21 18 18 17 19 15 15 14 15 15 14 15 15 15 14
4 4 4 5 7 7 10 14 13 14 15 20 24 17 15 13 12 12 13 13 14 14 16 17 15 14 17 21 26 19 18 17 16 16 17 16 16 17 17 17 18 18 18 17
4 4 4 5 6 9 13 13 13 12 14 20 25 26 15 14 13 14 14 14 16 16 17 18 17 16 18 20 25 18 19 18 18 19 18 17 17 17 17 18 19 21 22 23
4 4 5 5 7 10 15 14 11 14 18 21 27 27 23 15 17 17 15 16 16 17 18 17 18 19 19 23 21 21 21 22 21 19 21 19 21 22 22 24 24 23 23 24
5 5 6 8 12 17 17 10 13 16 17 23 28 22 26 17 20 16 16 15 20 19 21 20 22 26 26 22 21 25 24 21 21 27 29 28 26 25 25 27 25 23 23 25
6 7 13 14 14 9 10 17 19 19 23 26 25 27 25 18 17 18 18 18 20 27 25 24 24 25 23 22 21 24 27 26 28 22 22 26 26 27 27 26 30 29 27 27
10 15 17 14 9 13 17 24 22 26 25 28 28 25 21 18 23 25 19 25 27 30 29 29 35 29 22 25 27 29 29 28 27 29 30 30 28 28 29 28 31 32 31 27
13 14 13 14 16 20 21 25 29 28 23 29 24 23 23 20 21 24 22 30 31 28 36 32 31 22 23 27 27 29 32 33 32 33 28 32 32 33 32 32 31 31 32 32
11 14 17 16 23 27 23 26 29 30 27 26 24 25 23 25 24 27 28 28 29 35 33 28 24 23 26 29 31 32 37 37 35 34 34 34 33 36 35 32 35 35 30 33
16 19 22 20 26 24 25 22 23 22 24 23 25 26 25 31 28 30 26 32 32 31 30 25 23 23 25 29 32 29 30 34 31 29 33 32 33 34 36 35 34 28 27 33
16 17 19 26 26 31 31 27 22 26 20 24 26 28 25 33 29 33 32 30 28 26 22 22 23 27 27 28 31 30 28 29 29 34 32 32 32 30 32 36 34 30 30 28
18 21 25 30 25 30 28 29 24 25 20 26 25 31 30 32 30 30 27 26 25 20 23 23 27 28 28 29 29 28 28 27 29 31 31 30 29 28 30 32 32 32 28 27
19 25 29 24 19 18 23 23 22 18 20 25 27 26 26 31 33 32 30 24 20 22 25 30 28 24 25 27 27 28 28 27 27 30 31 32 34 31 27 27 34 31 30 30